AKJ1304 VOMM-VOPB

Flight info

Callsign AKJ1304
Flight time N/A
Altitude 37000
Route IDASO2B IDASO P761 LEGIN
Aircraft B38M/M-SDE1FGHILORVWXY/HB1

Departure

Time N/A
Airport Chennai International Airport (VOMM)

Arrival

Time 2026-04-23 10:48
Airport Veer Savarkar International Airport / INS Utkrosh (VOPB)
Time Latitude Longitude Altitude Speed Heading
2026-04-23 09:53 12.34268 86.58212 36782 ft 471 kts 99°
2026-04-23 09:55 12.31726 86.81119 36780 ft 471 kts 99°
2026-04-23 09:55 12.30679 86.90509 36781 ft 472 kts 99°
2026-04-23 09:57 12.28236 87.12303 36781 ft 470 kts 99°
2026-04-23 09:57 12.27394 87.19771 36786 ft 470 kts 99°
2026-04-23 09:59 12.24782 87.42806 36802 ft 471 kts 99°
2026-04-23 09:59 12.24029 87.49442 36794 ft 471 kts 99°
2026-04-23 10:00 12.23274 87.56065 36783 ft 471 kts 99°
2026-04-23 10:00 12.22514 87.62712 36782 ft 471 kts 99°
2026-04-23 10:01 12.21752 87.69366 36782 ft 470 kts 99°
2026-04-23 10:01 12.20993 87.75973 36790 ft 470 kts 99°
2026-04-23 10:02 12.20236 87.82564 36801 ft 470 kts 99°
2026-04-23 10:02 12.19468 87.89220 36802 ft 470 kts 99°
2026-04-23 10:03 12.18702 87.95856 36803 ft 470 kts 99°
2026-04-23 10:03 12.17934 88.02477 36801 ft 469 kts 99°
2026-04-23 10:04 12.17165 88.09096 36800 ft 469 kts 99°
2026-04-23 10:04 12.16399 88.15707 36799 ft 470 kts 99°
2026-04-23 10:05 12.15632 88.22317 36801 ft 470 kts 99°
2026-04-23 10:05 12.14861 88.28925 36801 ft 470 kts 99°
2026-04-23 10:06 12.14086 88.35545 36801 ft 470 kts 99°
2026-04-23 10:06 12.13308 88.42168 36792 ft 470 kts 99°
2026-04-23 10:07 12.12530 88.48791 36779 ft 469 kts 99°
2026-04-23 10:07 12.11755 88.55370 36778 ft 470 kts 99°
2026-04-23 10:08 12.10970 88.62024 36778 ft 470 kts 99°
2026-04-23 10:08 12.10187 88.68652 36786 ft 470 kts 99°
2026-04-23 10:09 12.09222 88.78595 36791 ft 470 kts 97°
2026-04-23 10:09 12.08674 88.85205 36793 ft 471 kts 97°
2026-04-23 10:10 12.08112 88.91843 36797 ft 471 kts 97°
2026-04-23 10:10 12.07533 88.98521 36800 ft 471 kts 97°
2026-04-23 10:11 12.06947 89.05151 36800 ft 470 kts 97°
2026-04-23 10:11 12.06351 89.11840 36804 ft 471 kts 97°
2026-04-23 10:12 12.05756 89.18490 36801 ft 470 kts 97°
2026-04-23 10:12 12.05160 89.25108 36803 ft 469 kts 97°
2026-04-23 10:13 12.04562 89.31714 36801 ft 469 kts 97°
2026-04-23 10:13 12.03962 89.38355 36803 ft 470 kts 96°
2026-04-23 10:14 12.03364 89.44978 36801 ft 470 kts 97°
2026-04-23 10:14 12.02762 89.51614 36803 ft 469 kts 97°
2026-04-23 10:15 12.02157 89.58266 36802 ft 468 kts 96°
2026-04-23 10:15 12.01556 89.64866 36802 ft 468 kts 97°
2026-04-23 10:16 12.00949 89.71453 36802 ft 467 kts 97°
2026-04-23 10:16 12.00343 89.78045 36802 ft 468 kts 97°
2026-04-23 10:17 11.99731 89.84687 36804 ft 468 kts 96°
2026-04-23 10:17 11.99127 89.91251 36803 ft 467 kts 96°
2026-04-23 10:18 11.98515 89.97857 36802 ft 468 kts 96°
2026-04-23 10:18 11.97906 90.04422 36799 ft 467 kts 96°
2026-04-23 10:19 11.97307 90.10869 36795 ft 468 kts 97°
2026-04-23 10:19 11.96694 90.17437 36784 ft 467 kts 97°
2026-04-23 10:20 11.96085 90.23961 36786 ft 467 kts 96°
2026-04-23 10:20 11.95491 90.30323 36790 ft 467 kts 96°
2026-04-23 10:21 11.94876 90.36887 36799 ft 467 kts 96°
2026-04-23 10:21 11.94256 90.43475 36799 ft 468 kts 96°
2026-04-23 10:22 11.93671 90.49674 36796 ft 468 kts 96°
2026-04-23 10:22 11.93058 90.56144 36797 ft 470 kts 96°
2026-04-23 10:23 11.92431 90.62754 36801 ft 471 kts 97°
2026-04-23 10:23 11.91826 90.69123 36617 ft 460 kts 97°
2026-04-23 10:24 11.91515 90.72394 36127 ft 455 kts 97°
2026-04-23 10:24 11.91213 90.75572 35738 ft 449 kts 96°
2026-04-23 10:24 11.90917 90.78681 35251 ft 445 kts 96°
2026-04-23 10:24 11.90618 90.81808 34735 ft 442 kts 96°
2026-04-23 10:25 11.90319 90.84928 34216 ft 439 kts 96°
2026-04-23 10:25 11.90024 90.87993 33707 ft 436 kts 96°
2026-04-23 10:25 11.89733 90.91025 33199 ft 434 kts 96°
2026-04-23 10:25 11.89441 90.94061 32686 ft 431 kts 96°
2026-04-23 10:26 11.89155 90.97041 32212 ft 429 kts 96°
2026-04-23 10:26 11.88866 91.00050 31713 ft 427 kts 96°
2026-04-23 10:26 11.88575 91.03068 31194 ft 426 kts 96°
2026-04-23 10:26 11.88293 91.06002 30688 ft 425 kts 96°
2026-04-23 10:27 11.88002 91.09011 30163 ft 423 kts 96°
2026-04-23 10:27 11.87717 91.11965 29645 ft 422 kts 96°
2026-04-23 10:27 11.87430 91.14932 29131 ft 420 kts 95°
2026-04-23 10:27 11.87144 91.17876 28614 ft 419 kts 95°
2026-04-23 10:28 11.86861 91.20802 28097 ft 417 kts 95°
2026-04-23 10:28 11.86576 91.23737 27574 ft 415 kts 95°
2026-04-23 10:28 11.86294 91.26587 27054 ft 414 kts 96°
2026-04-23 10:28 11.85907 91.29456 26526 ft 413 kts 100°
2026-04-23 10:29 11.85277 91.32311 25971 ft 412 kts 104°
2026-04-23 10:29 11.84483 91.35087 25437 ft 411 kts 107°
2026-04-23 10:29 11.83605 91.37865 24915 ft 409 kts 107°
2026-04-23 10:29 11.82722 91.40571 24405 ft 407 kts 108°
2026-04-23 10:30 11.81826 91.43313 23889 ft 405 kts 107°
2026-04-23 10:30 11.80942 91.46038 23378 ft 402 kts 107°
2026-04-23 10:30 11.80080 91.48721 22875 ft 400 kts 107°
2026-04-23 10:30 11.79221 91.51414 22373 ft 398 kts 107°
2026-04-23 10:31 11.78382 91.54063 21890 ft 396 kts 107°
2026-04-23 10:31 11.77544 91.56715 21398 ft 394 kts 107°
2026-04-23 10:31 11.76705 91.59384 20903 ft 392 kts 107°
2026-04-23 10:31 11.75882 91.62005 20410 ft 390 kts 106°
2026-04-23 10:32 11.75066 91.64609 19918 ft 388 kts 107°
2026-04-23 10:32 11.74252 91.67201 19434 ft 385 kts 107°
2026-04-23 10:32 11.73445 91.69772 18951 ft 383 kts 107°
2026-04-23 10:32 11.72639 91.72343 18484 ft 380 kts 107°
2026-04-23 10:33 11.71833 91.74913 18015 ft 376 kts 107°
2026-04-23 10:33 11.71045 91.77425 17542 ft 373 kts 107°
2026-04-23 10:33 11.70261 91.79924 17067 ft 370 kts 107°
2026-04-23 10:33 11.69478 91.82416 16590 ft 367 kts 107°
2026-04-23 10:34 11.68697 91.84900 16122 ft 364 kts 107°
2026-04-23 10:34 11.67936 91.87322 15664 ft 361 kts 107°
2026-04-23 10:34 11.67186 91.89709 15211 ft 358 kts 107°
2026-04-23 10:34 11.66436 91.92092 14755 ft 354 kts 107°
2026-04-23 10:35 11.65685 91.94478 14302 ft 351 kts 107°
2026-04-23 10:35 11.64944 91.96832 13845 ft 348 kts 107°
2026-04-23 10:35 11.64220 91.99131 13401 ft 345 kts 107°
2026-04-23 10:35 11.63495 92.01434 12950 ft 342 kts 107°
2026-04-23 10:36 11.62768 92.03741 12501 ft 340 kts 107°
2026-04-23 10:36 11.62064 92.05974 12069 ft 337 kts 107°
2026-04-23 10:36 11.61350 92.08237 11637 ft 333 kts 107°
2026-04-23 10:36 11.60646 92.10471 11205 ft 330 kts 107°
2026-04-23 10:37 11.59947 92.12685 10779 ft 327 kts 107°
2026-04-23 10:37 11.59255 92.14881 10348 ft 325 kts 107°
2026-04-23 10:37 11.58568 92.17055 9926 ft 322 kts 107°
2026-04-23 10:37 11.57882 92.19223 9648 ft 314 kts 107°
2026-04-23 10:38 11.57230 92.21287 9321 ft 302 kts 106°
2026-04-23 10:38 11.56601 92.23277 8933 ft 291 kts 106°
2026-04-23 10:38 11.56017 92.25128 8579 ft 282 kts 106°
2026-04-23 10:38 11.55431 92.26983 8233 ft 272 kts 106°
2026-04-23 10:39 11.54866 92.28767 7924 ft 265 kts 106°
2026-04-23 10:39 11.54313 92.30521 7561 ft 265 kts 106°
2026-04-23 10:39 11.53748 92.32310 7227 ft 263 kts 105°
2026-04-23 10:39 11.53196 92.34058 6894 ft 262 kts 105°
2026-04-23 10:40 11.52641 92.35815 6561 ft 261 kts 105°
2026-04-23 10:40 11.52089 92.37555 6242 ft 259 kts 105°
2026-04-23 10:40 11.51547 92.39269 5926 ft 257 kts 105°
2026-04-23 10:40 11.51001 92.40992 5607 ft 255 kts 105°
2026-04-23 10:41 11.50455 92.42715 5150 ft 260 kts 105°
2026-04-23 10:41 11.49901 92.44466 4782 ft 260 kts 105°
2026-04-23 10:41 11.49357 92.46177 4456 ft 256 kts 105°
2026-04-23 10:41 11.48817 92.47876 4201 ft 245 kts 106°
2026-04-23 10:42 11.48308 92.49480 4064 ft 231 kts 105°
2026-04-23 10:42 11.47963 92.51007 3886 ft 217 kts 86°
2026-04-23 10:42 11.48272 92.52460 3784 ft 206 kts 68°
2026-04-23 10:42 11.48771 92.53808 3790 ft 199 kts 68°
2026-04-23 10:43 11.49257 92.55074 3693 ft 188 kts 66°
2026-04-23 10:43 11.49749 92.56287 3439 ft 187 kts 65°
2026-04-23 10:43 11.50262 92.57480 3057 ft 188 kts 64°
2026-04-23 10:43 11.50798 92.58662 2937 ft 181 kts 63°
2026-04-23 10:44 11.51359 92.59836 2936 ft 184 kts 62°
2026-04-23 10:44 11.51941 92.60996 2937 ft 184 kts 61°
2026-04-23 10:44 11.52554 92.62159 2806 ft 185 kts 60°
2026-04-23 10:44 11.53180 92.63293 2548 ft 184 kts 59°
2026-04-23 10:45 11.53832 92.64420 2324 ft 181 kts 58°
2026-04-23 10:45 11.54464 92.65462 2154 ft 164 kts 56°
2026-04-23 10:45 11.55204 92.66309 1906 ft 159 kts 39°
2026-04-23 10:45 11.56082 92.66980 1705 ft 159 kts 37°
2026-04-23 10:46 11.56978 92.67667 1500 ft 162 kts 37°
2026-04-23 10:46 11.57882 92.68341 1294 ft 160 kts 37°
2026-04-23 10:46 11.58797 92.69015 1084 ft 161 kts 37°
2026-04-23 10:46 11.59697 92.69685 881 ft 162 kts 37°
2026-04-23 10:47 11.60608 92.70361 673 ft 162 kts 38°
2026-04-23 10:47 11.61523 92.71039 468 ft 163 kts 38°
2026-04-23 10:47 11.62454 92.71706 263 ft 163 kts 38°
2026-04-23 10:47 11.63362 92.72395 91 ft 156 kts 38°
2026-04-23 10:48 11.64128 92.72975 37 ft 111 kts 34°
2026-04-23 10:48 11.64608 92.73330 45 ft 59 kts 36°
2026-04-23 10:48 11.64839 92.73502 55 ft 26 kts 37°
2026-04-23 10:48 11.64925 92.73567 58 ft 11 kts 37°
2026-04-23 10:49 11.65007 92.73629 63 ft 13 kts 37°
2026-04-23 10:49 11.65053 92.73645 64 ft 5 kts 339°
2026-04-23 10:49 11.65095 92.73600 62 ft 7 kts 306°
2026-04-23 10:49 11.65111 92.73576 62 ft 0 kts 307°
2026-04-23 10:50 11.65113 92.73575 62 ft 2 kts 307°
2026-04-23 10:50 11.65137 92.73543 62 ft 4 kts 307°
2026-04-23 10:50 11.65153 92.73520 62 ft 3 kts 307°
2026-04-23 10:51 11.65171 92.73496 63 ft 3 kts 306°
2026-04-23 10:51 11.65177 92.73487 63 ft 1 kts 306°
2026-04-23 10:51 11.65183 92.73480 62 ft 0 kts 306°